Preview of NWS' New Version of Forecast
This preview is not operational and should not be used for support decisions.

Regional Weather Roundup (RWR)

Issued by National Weather Service (NWS)

                            
000
ASUS42 KTBW 212118
RWRFL 
FLORIDA REGIONAL WEATHER ROUNDUP
NATIONAL WEATHER SERVICE TAMPA BAY RUSKIN FL
500 PM EDT WED AUG 21 2019

NOTE: "FAIR" INDICATES FEW OR NO CLOUDS BELOW 12,000 FEET WITH NO
SIGNIFICANT WEATHER AND/OR OBSTRUCTIONS TO VISIBILITY.

FLZ001>010-012>015-112-114-115-212200-
PANHANDLE FLORIDA
  
CITY           SKY/WX    TMP DP  RH WIND       PRES   REMARKS
PENSACOLA      FAIR      87  78  74 MISG      30.04F HX 100           
PENSACOLA NAS  PTSUNNY   87  78  74 S8        30.03F HX 100           
MILTON NAS     PTSUNNY   78  72  81 CALM      30.06F                  
CRESTVIEW      LGT RAIN  77  74  90 CALM      30.07S                  
DUKE FIELD     FAIR      75  71  86 E6        30.06S                  
VALPARAISO     FAIR      88  72  58 SE3       30.04F                  
TRI COUNTY     FAIR      82  72  71 S14       30.06S THUNDER          
PANAMA CITY    PTSUNNY   75  73  93 E5        30.06F                  
TYNDALL AFB    TSTM      77  74  91 E7        30.07R                  
APALACHICOLA   CLOUDY    85  74  69 SE7       30.05F                  

STATION/POSITION SKY/WX   TEMP    WIND        PRES    WAVE   SWELL
                          AIR SEA DIR/SP/G            HT/PER HT/PER
                          (F)     (DEG/KT/KT) (MB)    (FT/S) (FT/S)
30.1N   87.6W              85 86  130/  2/  4 1017.4F   2/ 6   2/ 6
29.2N   88.2W              85 86  100/  4/  4 1017.3F   2/ 6   2/ 6
28.8N   86.0W                 85  130/  6/  8 1017.1F   2/ 5   2/ 5
PANAMA CITY BEAC           87 87  160/  4/  6 1018.5
TOWER C                    83     140/  6/  7 1018.1R
28.5N   84.5W              84     120/ 10/ 12 1018.2F   2/ 4

$$
FLZ011-016>038-118-127-128-134-139-239-212200-
NORTH FLORIDA
  
CITY           SKY/WX    TMP DP  RH WIND       PRES   REMARKS
MARIANNA       FAIR      81  73  76 S8        30.05F                  
TALLAHASSEE    PTSUNNY   86  76  71 S7        30.04F HX  96           
PERRY          PTSUNNY   91  76  61 SW7       30.05F HX 103           
LIVE OAK       SUNNY     91  70  49 SE3       30.04F HX  97           
CROSS CITY     FAIR      92  72  52 CALM      30.05S HX  99           
LAKE CITY      FAIR      90  68  48 CALM      30.05F                  
GAINESVILLE    FAIR      91  70  49 CALM      30.07F HX  96           
WILLISTON      FAIR      92  72  51 CALM      30.04F HX  99           
MAYPORT NAS    FAIR      88  76  67 E10       30.07F HX  99           
JACKSONVILLE   FAIR      92  72  51 E6        30.05F HX  99           
JAX NAS        PTSUNNY   92  70  48 E9        30.06F HX  97           
JAX CECIL      PTSUNNY   97  73  46 SE9       30.05F HX 107           
FERNANDINA BEA FAIR      87  78  74 MISG      30.07F HX  99           
ST AUGUSTINE   FAIR      87  77  72 E14       30.07F HX  99           
PALM COAST     SUNNY     90  73  58 E13G20    30.07S HX  98           

STATION/POSITION SKY/WX   TEMP    WIND        PRES    WAVE   SWELL
                          AIR SEA DIR/SP/G            HT/PER HT/PER
                          (F)     (DEG/KT/KT) (MB)    (FT/S) (FT/S)
SHELL POINT      NOT AVBL
KEATON BEACH               84     210/  8/  9 1017.8F
CEDAR KEY                  86     240/  4/  7 1017.8F
FERNANDINA                 92 84              1019.2F
30.7N   81.3W                 85                N/A     1/11
MAYPORT                    85 84  120/  8/ 12 1018.8F
31.4N   80.9W              83 84  180/  8/ 10 1018.1F   1/ 9   2/ 9
ST AUGUSTINE               83 85  110/ 10/ 11 1018.2F

$$
FLZ040-043>046-052-053-057-058-063-144-212200-
INTERIOR CENTRAL FLORIDA
  
CITY           SKY/WX    TMP DP  RH WIND       PRES   REMARKS
OCALA          FAIR      93  71  48 VRB5      30.05S HX 100           
LEESBURG       FAIR      93  72  50 S5        30.05S HX 101           
SANFORD        FAIR      91  72  53 E13       30.04F HX  98           
ORLANDO EXEC   FAIR      92  69  47 E10G18    30.04F HX  97           
ORLANDO INTL   FAIR      91  71  51 E9        30.04F HX  97           
KISSIMMEE      FAIR      89  76  65 S9        30.05S HX 100           
WINTER HAVEN   PTSUNNY   88  72  58 E14       30.05S                  
LAKELAND       MOSUNNY   91  72  52 SE3       30.04F HX  98           
BARTOW         PTSUNNY   91  72  52 SE5       30.03F HX  98           
SEBRING        MOCLDY    91  76  62 NE18      30.04S HX 102           
OKEECHOBEE     FAIR      88  72  58 E6        30.03S                  

$$
FLZ041-047-054-059-064-141-147-212200-
EAST CENTRAL FLORIDA
  
CITY           SKY/WX    TMP DP  RH WIND       PRES   REMARKS
ORMOND BEACH   MOSUNNY   86  75  70 E9G17     30.07S HX  95           
DAYTONA BEACH  FAIR      87  74  64 E8        30.06F HX  95           
DELAND         FAIR      91  73  55 E15       30.05S HX 100           
NEW SMYRNA BEA MOSUNNY   88  75  66 E10       30.07F HX  97           
JFK SPACE CTR  MOSUNNY   88  54  30 E12       30.06S                  
TITUSVILLE     MOSUNNY   91  75  59 E9        30.07S HX 102           
CAPE CANAVERAL FAIR      87  78  74 CALM      30.06S HX 101           
PATRICK AFB    FAIR      88  78  73 E10       30.06S HX 102           
MELBOURNE      FAIR      89  75  63 E14       30.06R HX  99           
VERO BEACH     FAIR      88  75  65 E10       30.06F HX  97           
FT PIERCE      FAIR      88  73  61 E10G17    30.06S HX  95           
STUART         SHOWER    88  73  62 E9        30.07S HX  96           

STATION/POSITION SKY/WX   TEMP    WIND        PRES    WAVE   SWELL
                          AIR SEA DIR/SP/G            HT/PER HT/PER
                          (F)     (DEG/KT/KT) (MB)    (FT/S) (FT/S)
28.5N   80.2W              84 85   90/ 10/ 12 1018.2F   2/ 5   2/ 5
28.9N   78.5W              85 87  100/  8/ 12 1019.3S   2/ 7   2/ 7
TRIDENT PIER               87 82   80/  9/ 12 1019.5F
28.4N   80.5W                 83                N/A     2/ 7
27.5N   80.2W                 85                N/A     1/ 7

$$
FLZ050-056-061-142-242-148-248-149-249-151-251-155-255-
160-260-212200-
WEST CENTRAL FLORIDA
  
CITY           SKY/WX    TMP DP  RH WIND       PRES   REMARKS
CRYSTAL RIVER  FAIR      90  75  62 W6        30.04S HX 100           
INVERNESS      FAIR      91  73  55 CALM      30.04F HX 100           
BROOKSVILLE    FAIR      91  71  51 SE7       30.04F HX  97           
CLEARWATER AIR FAIR      90  70  51 SE7       30.03F HX  95           
ST PETE CLEARW FAIR      92  70  48 SE3       30.03F HX  97           
TAMPA INTL     PTSUNNY   92  69  47 SE7       30.03F HX  97           
PLANT CITY     FAIR     N/A N/A N/A NE3       30.05F                  
MACDILL AFB    FAIR      91  71  51 S5        30.03F HX  97           
PETER O KNIGHT CLOUDY    91  73  55 S7        30.04S HX 100           
ST PETERSBURG  FAIR      91  71  51 CALM      30.01F HX  97           
SARASOTA       FAIR      88  76  67 SW9       30.02F HX  99           
VENICE         FAIR      88  79  74 SW12      30.04S HX 102           

STATION/POSITION SKY/WX   TEMP    WIND        PRES    WAVE   SWELL
                          AIR SEA DIR/SP/G            HT/PER HT/PER
                          (F)     (DEG/KT/KT) (MB)    (FT/S) (FT/S)
27.3N   84.2W                 85                N/A     2/ 5
CLEARWATER BEACH                   90/  3/  5   N/A
MIDDLE TAMPA BAY           85     260/ 11/ 12 1017.4F
VENICE                     85 85  220/ 11/ 12 1017.2F

$$
FLZ066-069-070-075>078-162-262-165-265-212200-
SOUTHWEST FLORIDA AND KEYS
  
CITY           SKY/WX    TMP DP  RH WIND       PRES   REMARKS
PUNTA GORDA    FAIR      92  69  47 SE8       30.03F HX  97           
FT MYERS       FAIR      91  68  46 CALM      30.00F HX  95           
SOUTHWEST INTL FAIR      93  70  46 E5        30.01F HX  99           
NAPLES         FAIR      89  74  60 W8        30.01F HX  98           
MARCO ISLAND   HVY RAIN N/A N/A N/A NW9         N/A                   
IMMOKALEE      FAIR      88  75  66 N5        30.00F HX  97           
MARATHON       FAIR      90  75  61 SE7       30.01F HX 100           
KEY WEST NAS   PTSUNNY   84  72  65 S8        30.04R                  
KEY WEST INTL  FAIR      81  75  82 S8        30.04S                  

STATION/POSITION SKY/WX   TEMP    WIND        PRES    WAVE   SWELL
                          AIR SEA DIR/SP/G            HT/PER HT/PER
                          (F)     (DEG/KT/KT) (MB)    (FT/S) (FT/S)
NAPLES                     89 89              1016.8F
26.0N   85.6W              85 87  110/  4/  4 1016.8S   2/ 5   2/ 5
DRY TORTUGAS               79     200/  4/  6 1017.2F
SAND KEY                   80     120/ 14/ 19 1016.2R
SOMBRERO KEY               84     170/ 12/ 14 1016.9F
LONG KEY                   86                 1015.8F

$$
FLZ067-068-071>074-168-172>174-212200-
SOUTHEAST FLORIDA 
  
CITY           SKY/WX    TMP DP  RH WIND       PRES   REMARKS
W PALM BEACH   FAIR      87  72  60 E10       30.05F                  
BOCA RATON     MOSUNNY   90  73  58 E14       30.04F HX  98           
FT LAUDER-EXEC FAIR      87  72  60 E15       30.03F                  
FT LAUDERDALE  FAIR      86  71  60 E12       30.03F                  
POMPANO BEACH  FAIR      89  72  56 E14       30.04F HX  96           
PEMBROKE PINES FAIR      90  72  55 NE14      30.04F HX  97           
OPA LOCKA      FAIR      89  73  59 E10       30.03F HX  97           
MIAMI          LGT RAIN  85  72  65 E8        30.03F                  
WEST KENDALL   FAIR      87  73  62 E13       30.02F                  
HOMESTEAD      FAIR      88  73  60 E10       30.02F HX  95           

STATION/POSITION SKY/WX   TEMP    WIND        PRES    WAVE   SWELL
                          AIR SEA DIR/SP/G            HT/PER HT/PER
                          (F)     (DEG/KT/KT) (MB)    (FT/S) (FT/S)
VIRGINIA KEY               85 89   60/  8/ 11 1017.0
LAKE WORTH                 84 87  100/  8/  9 1018.8F
FOWEY ROCKS                81 86   90/ 13/ 15 1017.6F
SETTLEMENT POINT           85     120/  3/  4 1017.9F

$$